Location: Unspecified
(0.0000°N, 0.0000°E)
Time: 12:01:22
(UTC+00:00)

Vanguard 2 Rocket - Pass Details

Date: 21 December 2018
Orbit: 556 x 3325 km, 32.9° (Epoch: 25 March)

Event Time Altitude Azimuth Distance (km) Brightness Sun altitude
Rises 00:33:06 0° 238° (WSW) 6,679 11.4 -65.0°
Reaches altitude 10° 00:38:09 10° 240° (WSW) 5,296 10.8 -64.6°
Enters shadow 00:38:16 10° 240° (WSW) 5,260 10.7 -64.6°
Maximum altitude 00:52:17 72° 322° (NW) 1,735 - -63.1°
Drops below altitude 10° 00:59:59 10° 46° (NE) 3,028 - -62.1°
Sets 01:02:08 0° 49° (NE) 3,737 - -61.8°
